• In Hungary
  • List of Countries
  • For 7 days
  • Water Temperature
  • Satellite Maps
  • Weather Map
  • News
  • Weather Widgets
  • user-avatar
    Login

    Hourly Weather Mikomeseng

    Today, 19 October, Friday

    Time Temperature Precipitation Wind Pressure Humidity
    00:00 +20°C° 0 mm 0 mps 712 mmHg 98%
    01:00 +20°C° 0 mm 0 mps 712 mmHg 98%
    02:00 +20°C° 0 mm 0 mps 712 mmHg 98%
    03:00 +20°C° 0 mm 0 mps 712 mmHg 98%
    04:00 +20°C° 0 mm 0 mps 711 mmHg 98%
    05:00 +20°C° 0 mm 0 mps 712 mmHg 98%
    06:00 +20°C° 0 mm 0 mps 712 mmHg 97%
    07:00 +20°C° 0 mm 0 mps 712 mmHg 97%
    08:00 +23°C° 0 mm 0 mps 713 mmHg 85%
    09:00 +26°C° 0 mm 0 mps 713 mmHg 72%
    10:00 +28°C° 0 mm 0 mps 714 mmHg 60%
    11:00 +31°C° 0 mm 1 mps 713 mmHg 57%
    12:00 +32°C° 0 mm 1 mps 713 mmHg 53%
    13:00 +33°C° 0 mm 1 mps 712 mmHg 49%
    14:00 +32°C° 0.9 mm 1 mps 711 mmHg 59%
    15:00 +30°C° 0.9 mm 1 mps 710 mmHg 68%
    16:00 +29°C° 0.9 mm 1 mps 710 mmHg 77%
    17:00 +27°C° 0.6 mm 1 mps 710 mmHg 82%
    18:00 +26°C° 0.6 mm 1 mps 710 mmHg 88%
    19:00 +24°C° 0.6 mm 1 mps 710 mmHg 93%
    20:00 +24°C° 0.5 mm 1 mps 710 mmHg 95%
    21:00 +24°C° 0.5 mm 1 mps 711 mmHg 96%
    22:00 +23°C° 0.5 mm 1 mps 711 mmHg 98%
    23:00 +23°C° 0.4 mm 1 mps 711 mmHg 98%

    Tomorrow, 20 October, Saturday

    Time Temperature Precipitation Wind Pressure Humidity
    00:00 +23°C° 0.4 mm 1 mps 711 mmHg 98%
    01:00 +21°C° 0.4 mm 0 mps 711 mmHg 99%
    02:00 +20°C° 1.2 mm 0 mps 711 mmHg 99%
    03:00 +20°C° 1.2 mm 0 mps 711 mmHg 99%
    04:00 +20°C° 1.2 mm 0 mps 710 mmHg 99%
    05:00 +20°C° 0.7 mm 0 mps 711 mmHg 98%
    06:00 +21°C° 0.7 mm 0 mps 711 mmHg 98%
    07:00 +23°C° 0.7 mm 1 mps 712 mmHg 98%
    08:00 +23°C° 0.5 mm 0 mps 712 mmHg 89%
    09:00 +25°C° 0.5 mm 0 mps 713 mmHg 81%
    10:00 +28°C° 0.5 mm 0 mps 713 mmHg 72%
    11:00 +30°C° 1.4 mm 1 mps 713 mmHg 74%
    12:00 +30°C° 1.4 mm 1 mps 712 mmHg 75%
    13:00 +30°C° 1.4 mm 1 mps 711 mmHg 77%
    14:00 +29°C° 1 mm 1 mps 711 mmHg 76%
    15:00 +29°C° 1 mm 1 mps 710 mmHg 76%
    16:00 +29°C° 1 mm 1 mps 710 mmHg 75%
    17:00 +27°C° 0.2 mm 1 mps 710 mmHg 82%
    18:00 +26°C° 0.2 mm 1 mps 711 mmHg 88%
    19:00 +24°C° 0.2 mm 1 mps 711 mmHg 94%
    20:00 +24°C° 0.6 mm 1 mps 711 mmHg 95%
    21:00 +24°C° 0.6 mm 1 mps 712 mmHg 97%
    22:00 +23°C° 0.6 mm 1 mps 712 mmHg 98%
    23:00 +23°C° 0.1 mm 1 mps 712 mmHg 98%

    Day after tomorrow, 21 October, Sunday

    Time Temperature Precipitation Wind Pressure Humidity
    00:00 +23°C° 0.1 mm 1 mps 712 mmHg 98%
    01:00 +21°C° 0.1 mm 0 mps 711 mmHg 99%
    02:00 +21°C° 0.5 mm 0 mps 711 mmHg 99%
    03:00 +21°C° 0.5 mm 0 mps 711 mmHg 99%
    04:00 +20°C° 0.5 mm 0 mps 710 mmHg 99%
    05:00 +21°C° 0.1 mm 0 mps 711 mmHg 98%
    06:00 +21°C° 0.1 mm 0 mps 711 mmHg 98%
    07:00 +21°C° 0.1 mm 0 mps 712 mmHg 97%
    08:00 +23°C° 0.1 mm 0 mps 712 mmHg 87%
    09:00 +26°C° 0.1 mm 0 mps 713 mmHg 78%
    10:00 +28°C° 0.1 mm 0 mps 713 mmHg 68%
    11:00 +29°C° 0.7 mm 0 mps 713 mmHg 67%
    12:00 +29°C° 0.7 mm 0 mps 712 mmHg 66%
    13:00 +32°C° 0.7 mm 1 mps 711 mmHg 65%
    14:00 +30°C° 1.5 mm 1 mps 710 mmHg 73%
    15:00 +29°C° 1.5 mm 1 mps 710 mmHg 81%
    16:00 +28°C° 1.5 mm 1 mps 709 mmHg 90%
    17:00 +26°C° 0.8 mm 1 mps 710 mmHg 92%
    18:00 +25°C° 0.8 mm 1 mps 710 mmHg 95%
    19:00 +24°C° 0.8 mm 1 mps 711 mmHg 97%
    20:00 +24°C° 0.6 mm 1 mps 711 mmHg 97%
    21:00 +24°C° 0.6 mm 1 mps 712 mmHg 98%
    22:00 +23°C° 0.6 mm 1 mps 712 mmHg 98%
    23:00 +21°C° 0.7 mm 0 mps 712 mmHg 98%

    22 October, Monday

    Time Temperature Precipitation Wind Pressure Humidity
    00:00 +21°C° 0.7 mm 0 mps 712 mmHg 98%
    01:00 +21°C° 0.7 mm 0 mps 711 mmHg 98%
    02:00 +21°C° 0.3 mm 0 mps 711 mmHg 98%
    03:00 +21°C° 0.3 mm 0 mps 711 mmHg 98%
    04:00 +21°C° 0.3 mm 0 mps 710 mmHg 98%
    05:00 +21°C° 0.1 mm 0 mps 711 mmHg 98%
    06:00 +21°C° 0.1 mm 0 mps 711 mmHg 98%
    07:00 +21°C° 0.1 mm 0 mps 712 mmHg 97%
    08:00 +22°C° 0.2 mm 0 mps 712 mmHg 92%
    09:00 +24°C° 0.2 mm 0 mps 713 mmHg 87%
    10:00 +25°C° 0.2 mm 0 mps 713 mmHg 82%
    11:00 +26°C° 0.7 mm 0 mps 712 mmHg 80%
    12:00 +28°C° 0.7 mm 1 mps 712 mmHg 78%
    13:00 +29°C° 0.7 mm 1 mps 711 mmHg 75%
    14:00 +28°C° 1.8 mm 1 mps 710 mmHg 81%
    15:00 +27°C° 1.8 mm 1 mps 710 mmHg 86%
    16:00 +26°C° 1.8 mm 1 mps 710 mmHg 92%
    17:00 +25°C° 0.9 mm 1 mps 710 mmHg 94%
    18:00 +25°C° 0.9 mm 1 mps 711 mmHg 96%
    19:00 +22°C° 0.9 mm 0 mps 712 mmHg 97%
    20:00 +22°C° 1.2 mm 0 mps 712 mmHg 98%
    21:00 +22°C° 1.2 mm 0 mps 713 mmHg 98%
    22:00 +21°C° 1.2 mm 0 mps 713 mmHg 98%
    23:00 +21°C° 0.7 mm 0 mps 713 mmHg 98%

    23 October, Tuesday

    Time Temperature Precipitation Wind Pressure Humidity
    00:00 +21°C° 0.7 mm 0 mps 712 mmHg 98%
    01:00 +21°C° 0.7 mm 0 mps 712 mmHg 99%
    02:00 +21°C° 0.2 mm 0 mps 711 mmHg 99%
    03:00 +21°C° 0.2 mm 0 mps 711 mmHg 99%
    04:00 +20°C° 0.2 mm 0 mps 711 mmHg 99%
    05:00 +21°C° 0 mm 0 mps 711 mmHg 98%
    06:00 +21°C° 0 mm 0 mps 712 mmHg 98%
    07:00 +21°C° 0 mm 0 mps 712 mmHg 98%
    08:00 +22°C° 0.1 mm 0 mps 713 mmHg 92%
    09:00 +24°C° 0.1 mm 0 mps 713 mmHg 87%
    10:00 +25°C° 0.1 mm 0 mps 714 mmHg 82%
    11:00 +27°C° 0.1 mm 1 mps 713 mmHg 78%
    12:00 +28°C° 0.1 mm 1 mps 712 mmHg 75%
    13:00 +29°C° 0.1 mm 1 mps 712 mmHg 72%
    14:00 +29°C° 0.5 mm 1 mps 711 mmHg 71%
    15:00 +29°C° 0.5 mm 1 mps 711 mmHg 71%
    16:00 +30°C° 0.5 mm 1 mps 711 mmHg 70%
    17:00 +28°C° 1.1 mm 1 mps 711 mmHg 78%
    18:00 +26°C° 1.1 mm 1 mps 712 mmHg 87%
    19:00 +24°C° 1.1 mm 1 mps 712 mmHg 95%
    20:00 +24°C° 1.5 mm 1 mps 713 mmHg 96%
    21:00 +24°C° 1.5 mm 1 mps 713 mmHg 96%
    22:00 +22°C° 1.5 mm 0 mps 713 mmHg 97%
    23:00 +23°C° 0.5 mm 1 mps 713 mmHg 97%

    24 October, Wednesday

    Time Temperature Precipitation Wind Pressure Humidity
    00:00 +23°C° 0.5 mm 1 mps 712 mmHg 97%
    01:00 +23°C° 0.5 mm 1 mps 712 mmHg 97%
    02:00 +23°C° 0 mm 1 mps 712 mmHg 98%
    03:00 +21°C° 0 mm 0 mps 712 mmHg 98%
    04:00 +20°C° 0 mm 0 mps 712 mmHg 98%
    05:00 +21°C° 0 mm 0 mps 712 mmHg 98%
    06:00 +21°C° 0 mm 0 mps 713 mmHg 97%
    07:00 +21°C° 0 mm 0 mps 713 mmHg 97%
    08:00 +23°C° 0 mm 0 mps 714 mmHg 87%
    09:00 +25°C° 0 mm 0 mps 714 mmHg 77%
    10:00 +27°C° 0 mm 0 mps 715 mmHg 67%
    11:00 +30°C° 0.2 mm 1 mps 714 mmHg 65%
    12:00 +30°C° 0.2 mm 1 mps 713 mmHg 63%
    13:00 +31°C° 0.2 mm 1 mps 712 mmHg 61%
    14:00 +30°C° 1.2 mm 1 mps 712 mmHg 70%
    15:00 +29°C° 1.2 mm 1 mps 711 mmHg 80%
    16:00 +28°C° 1.2 mm 1 mps 711 mmHg 89%
    17:00 +26°C° 0.5 mm 1 mps 711 mmHg 91%
    18:00 +25°C° 0.5 mm 1 mps 712 mmHg 94%
    19:00 +22°C° 0.5 mm 0 mps 712 mmHg 96%
    20:00 +22°C° 0.6 mm 0 mps 712 mmHg 97%
    21:00 +21°C° 0.6 mm 0 mps 713 mmHg 98%
    22:00 +21°C° 0.6 mm 0 mps 713 mmHg 98%
    23:00 +21°C° 1.1 mm 0 mps 712 mmHg 98%
    Show more